N0OQA Weather Reports


time (UTC)temp
C
wind
direction
speed
KPH
gust
KPH
rain 1hr
cm
rain 24hr
cm
rain mn
cm
humidity
%
barometer
mb
20260507131913 2 0 0.0 0.0 0.00 0.00 0.00 83 1015.2
20260507131413 2 0 0.0 0.0 0.00 0.00 0.00 86 1015.2
20260507130913 2 0 0.0 0.0 0.00 0.00 0.00 88 1015.2
20260507130412 1 0 0.0 0.0 0.00 0.00 0.00 90 1015.3
20260507125912 1 0 0.0 0.0 0.00 0.00 0.00 91 1015.2
20260507125412 1 0 0.0 0.0 0.00 0.00 0.00 92 1015.3
20260507124912 0 0 0.0 0.0 0.00 0.00 0.00 94 1015.3
20260507124411 0 0 0.0 0.0 0.00 0.00 0.00 95 1015.3
20260507123911 0 0 0.0 0.0 0.00 0.00 0.00 96 1015.3
20260507123411 0 0 0.0 0.0 0.00 0.00 0.00 97 1015.4
20260507122410 -1 0 0.0 0.0 0.00 0.00 0.00 95 1012.3
20260507120902 -1 0 0.0 0.0 0.00 0.00 0.00 96 1015.2
20260507120401 -1 0 0.0 0.0 0.00 0.00 0.00 96 1015.2
20260507115901 -1 0 0.0 0.0 0.00 0.00 0.00 96 1015.2
20260507115401 -1 0 0.0 0.0 0.00 0.00 0.00 96 1015.3
20260507114901 -1 0 0.0 0.0 0.00 0.00 0.00 96 1015.1
20260507114400 -1 0 0.0 0.0 0.00 0.00 0.00 95 1015.2
20260507113900 -1 0 0.0 0.0 0.00 0.00 0.00 95 1015.2
20260507113400 -1 0 0.0 0.0 0.00 0.00 0.00 95 1015.3
20260507112900 -1 0 0.0 0.0 0.00 0.00 0.00 94 1015.4
20260507111859 -1 0 0.0 0.0 0.00 0.00 0.00 94 1015.4
20260507111359 -1 0 0.0 0.0 0.00 0.00 0.00 94 1015.3
20260507110858 -1 0 0.0 0.0 0.00 0.00 0.00 94 1015.3
20260507110358 -1 0 0.0 0.0 0.00 0.00 0.00 94 1015.2
20260507105357 -1 0 0.0 0.0 0.00 0.00 0.00 93 1015.3
20260507104857 -1 0 0.0 0.0 0.00 0.00 0.00 93 1015.3
20260507104357 -1 0 0.0 0.0 0.00 0.00 0.00 92 1015.3
20260507103857 0 0 0.0 0.0 0.00 0.00 0.00 92 1015.4
20260507103356 0 0 0.0 0.0 0.00 0.00 0.00 92 1015.4
20260507102856 0 0 0.0 0.0 0.00 0.00 0.00 92 1015.4
20260507102356 0 0 0.0 0.0 0.00 0.00 0.00 92 1015.5
20260507101855 0 0 0.0 0.0 0.00 0.00 0.00 92 1015.4
20260507101355 0 0 0.0 0.0 0.00 0.00 0.00 91 1015.4
20260507100855 0 0 0.0 0.0 0.00 0.00 0.00 90 1015.4
20260507100355 0 0 0.0 0.0 0.00 0.00 0.00 90 1015.4
20260507095854 0 0 0.0 0.0 0.00 0.00 0.00 89 1015.4
20260507095354 0 0 0.0 0.0 0.00 0.00 0.00 87 1015.4
20260507094854 1 0 0.0 0.0 0.00 0.00 0.00 86 1015.3
20260507094353 1 0 0.0 0.0 0.00 0.00 0.00 86 1015.3
20260507093853 1 0 0.0 0.0 0.00 0.00 0.00 86 1015.3
20260507093353 1 0 0.0 0.0 0.00 0.00 0.00 86 1015.4
20260507092853 1 0 0.0 0.0 0.00 0.00 0.00 86 1015.4
20260507092352 1 0 0.0 0.0 0.00 0.00 0.00 87 1015.4
20260507091852 1 0 0.0 0.0 0.00 0.00 0.00 87 1015.3
20260507091352 0 0 0.0 0.0 0.00 0.00 0.00 88 1015.3
20260507090851 0 0 0.0 0.0 0.00 0.00 0.00 88 1015.4
20260507090351 0 0 0.0 0.0 0.00 0.00 0.00 89 1015.4
20260507085851 0 0 0.0 0.0 0.00 0.00 0.00 89 1015.4
20260507085350 0 0 0.0 0.0 0.00 0.00 0.00 90 1015.4
20260507084850 0 0 0.0 0.0 0.00 0.00 0.00 90 1015.4
20260507083850 0 0 0.0 0.0 0.00 0.00 0.00 89 1015.4
20260507083349 0 0 0.0 0.0 0.00 0.00 0.00 89 1015.4
20260507082849 0 0 0.0 0.0 0.00 0.00 0.00 89 1015.4
20260507082349 0 0 0.0 0.0 0.00 0.00 0.00 88 1015.4
20260507081848 0 0 0.0 0.0 0.00 0.00 0.00 88 1015.4
20260507081348 0 0 0.0 0.0 0.00 0.00 0.00 88 1015.4
20260507080848 0 0 0.0 0.0 0.00 0.00 0.00 87 1015.4
20260507080348 0 0 0.0 0.0 0.00 0.00 0.00 87 1015.4
20260507075847 0 0 0.0 0.0 0.00 0.00 0.00 86 1015.4
20260507075347 0 0 0.0 0.0 0.00 0.00 0.00 85 1015.3
20260507074847 0 0 0.0 0.0 0.00 0.00 0.00 85 1015.3
20260507074347 0 0 0.0 0.0 0.00 0.00 0.00 84 1015.4
20260507073846 0 0 0.0 0.0 0.00 0.00 0.00 84 1015.4
20260507073346 0 0 0.0 0.0 0.00 0.00 0.00 83 1015.4
20260507062842 1 0 0.0 0.0 0.00 0.00 0.00 76 1016.0
20260507055340 2 0 0.0 0.0 0.00 0.00 0.00 71 1016.4
20260507053839 2 0 0.0 0.0 0.00 0.00 0.00 69 1016.4
20260507052839 3 0 0.0 0.0 0.00 0.00 0.00 69 1016.4
20260507051838 3 0 0.0 0.0 0.00 0.00 0.00 67 1016.5
20260507044836 3 0 0.0 0.0 0.00 0.00 0.00 66 1016.7
20260507043836 3 0 0.0 0.0 0.00 0.00 0.00 65 1016.7
20260507043336 3 0 0.0 0.0 0.00 0.00 0.00 65 1016.7
20260507034333 4 0 0.0 0.0 0.00 0.00 0.00 64 1016.9
20260507032832 4 0 0.0 0.0 0.00 0.00 0.00 64 1017.0
20260507012319 6 280 11.3 16.1 0.00 0.00 0.00 54 1016.9
20260507001815 6 301 14.5 22.5 0.00 0.00 0.00 52 1017.2
20260506233812 7 305 12.9 16.1 0.00 0.00 0.00 52 1017.3
20260506155744 4 307 17.7 25.7 0.00 0.00 0.00 62 1019.2